C/2021 G2 ( ATLAS )

Japanese version
Home page
Updated on October 24, 2024

---------------------------------------------------------------------

* Profile

Discovery Date April 11, 2021
Magnitude 19.3 mag
Discoverer Asteroid Terrestrial-Impact Last Alert System (ATLAS) search program

* Pictures

* Orbital Elements

Epoch 2024 Oct. 17.0 TT = JDT 2460600.5
T 2024 Sept.  9.19400 TT                                Rudenko
q   4.9823901            (2000.0)            P               Q
z  -0.0000620      Peri.  343.27605     -0.84714336     +0.20048764
 +/-0.0000002      Node   221.09519     -0.35996003     -0.89775000
e   1.0003090      Incl.   48.47274     -0.39086687     +0.39223672
>From 1465 observations 2021 Sept. 29-2024 Aug. 16, mean residual 0".3.

* Finding Charts

* Magnitudes Graph

        m1 = 3.5 + 5 log d + 10.0 log r

---------------------------------------------------------------------

The orbital elements are published on M.P.E.C. 2024-Q20.
The charts are made with StellaNavigator Ver.10 (AstroArts).
The magnitudes graphs are made with Comet for Windows.

---------------------------------------------------------------------

Copyright(C) Seiichi Yoshida (comet@aerith.net). All rights reserved.